This is the latest recevied weather packets stored in our database for station/object WA1NHP. If no packets are shown the sender has not sent any weather packets the latest 10 day(s).
| Time | Temp. | Humidity | Pressure | Rain* | Wind** | Luminosity | Snow |
|---|---|---|---|---|---|---|---|
| 1788572644 | 16.67° C | 91% | 1023.9 hPa | 0 mm | - | 0 W/m² | - |
| 1788572044 | 16.67° C | 91% | 1023.9 hPa | 0 mm | - | 0 W/m² | - |
| 1788571444 | 17.22° C | 90% | 1023.9 hPa | 0 mm | - | 0 W/m² | - |
| 1788570843 | 17.22° C | 89% | 1023.9 hPa | 0 mm | - | 0 W/m² | - |
| 1788570244 | 17.78° C | 90% | 1023.9 hPa | 0 mm | - | 0 W/m² | - |
| 1788569644 | 17.78° C | 90% | 1023.9 hPa | 0 mm | - | 0 W/m² | - |
| 1788569044 | 17.78° C | 90% | 1023.9 hPa | 0 mm | - | 0 W/m² | - |
| 1788568444 | 17.78° C | 90% | 1023.9 hPa | 0 mm | - | 0 W/m² | - |
| 1788567844 | 18.33° C | 89% | 1023.9 hPa | 0 mm | - | 0 W/m² | - |
| 1788567263 | 18.33° C | 89% | 1023.9 hPa | 0 mm | - | 0 W/m² | - |
| 1788566644 | 18.33° C | 87% | 1023.9 hPa | 0 mm | - | 0 W/m² | - |
| 1788566044 | 18.33° C | 88% | 1023.9 hPa | 0 mm | - | 0 W/m² | - |
| 1788565444 | 18.33° C | 88% | 1023.9 hPa | 0 mm | - | 0 W/m² | - |
| 1788564844 | 18.89° C | 88% | 1023.9 hPa | 0 mm | - | 0 W/m² | - |
| 1788564244 | 18.89° C | 88% | 1023.9 hPa | 0 mm | - | 0 W/m² | - |
| 1788563644 | 19.44° C | 85% | 1023.9 hPa | 0 mm | - | 0 W/m² | - |
| 1788563044 | 19.44° C | 86% | 1023.9 hPa | 0 mm | - | 9 W/m² | - |
| 1788562443 | 19.44° C | 85% | 1023.9 hPa | 0 mm | - | 21 W/m² | - |
| 1788561844 | 20° C | 85% | 1023.9 hPa | 0 mm | - | 25 W/m² | - |
| 1788561243 | 20° C | 81% | 1023.9 hPa | 0 mm | - | 28 W/m² | - |
| 1788560643 | 20.56° C | 81% | 1023.9 hPa | 0 mm | - | 25 W/m² | - |
| 1788560044 | 21.11° C | 79% | 1023.9 hPa | 0 mm | - | 33 W/m² | - |
| 1788559443 | 21.67° C | 76% | 1023.9 hPa | 0 mm | - | 42 W/m² | - |
| 1788558845 | 22.22° C | 74% | 1023.9 hPa | 0 mm | - | 37 W/m² | - |
| 1788558244 | 22.78° C | 70% | 1023.9 hPa | 0 mm | - | 76 W/m² | - |
* Rain latest hour (hover to see other rain measurements)
** Current wind speed in m/s (hover to see current wind gust speed)